CW1569 Weather Reports


time (UTC)temp
C
wind
direction
speed
KPH
gust
KPH
rain 1hr
cm
rain 24hr
cm
rain mn
cm
humidity
%
barometer
mb
20260906130846 21 360 0.0 3.2 0.00 0.03 0.03 94 1016.9
20260906130353 21 360 0.0 6.4 0.00 0.03 0.03 94 1016.9
20260906125822 20 360 4.8 6.4 0.03 0.03 0.03 94 1017.0
20260906125331 20 360 0.0 9.7 0.03 0.03 0.03 95 1016.9
20260906124837 20 360 1.6 9.7 0.03 0.03 0.03 96 1016.8
20260906124348 20 360 3.2 9.7 0.03 0.03 0.03 96 1016.9
20260906123830 20 360 4.8 9.7 0.03 0.03 0.03 96 1016.8
20260906123341 20 360 3.2 8.0 0.03 0.03 0.03 96 1016.8
20260906122850 19 360 1.6 8.0 0.03 0.03 0.03 97 1016.6
20260906122338 19 360 3.2 8.0 0.03 0.03 0.03 97 1016.6
20260906121827 19 360 3.2 9.7 0.03 0.03 0.03 97 1016.5
20260906121337 19 360 3.2 11.3 0.03 0.03 0.03 97 1016.5
20260906120825 19 360 3.2 11.3 0.03 0.03 0.03 98 1016.5
20260906120333 18 360 6.4 9.7 0.03 0.03 0.03 97 1016.4
20260906115823 18 360 6.4 9.7 0.03 0.03 0.03 98 1016.2
20260906115333 18 360 4.8 6.4 0.00 0.00 0.00 98 1016.1
20260906114822 18 360 1.6 6.4 0.00 0.00 0.00 98 1016.1
20260906114332 18 360 1.6 8.0 0.00 0.00 0.00 98 1016.1
20260906113840 18 360 1.6 9.7 0.00 0.00 0.00 98 1016.0
20260906113331 18 360 3.2 8.0 0.00 0.00 0.00 98 1015.8
20260906112838 18 360 3.2 6.4 0.00 0.00 0.00 98 1015.7
20260906112327 18 360 1.6 4.8 0.00 0.00 0.00 98 1015.7
20260906111837 18 360 1.6 3.2 0.00 0.00 0.00 97 1015.7
20260906111328 18 360 1.6 3.2 0.00 0.00 0.00 97 1015.7
20260906110836 18 360 0.0 3.2 0.00 0.00 0.00 97 1015.9
20260906110324 18 360 0.0 3.2 0.00 0.00 0.00 97 1015.8
20260906105834 18 76 0.0 3.2 0.00 0.00 0.00 97 1015.6
20260906105323 18 360 3.2 4.8 0.00 0.00 0.00 97 1015.5
20260906104828 18 76 1.6 4.8 0.00 0.00 0.00 97 1015.5
20260906104337 18 76 1.6 4.8 0.00 0.00 0.00 97 1015.6
20260906103824 18 360 0.0 3.2 0.00 0.00 0.00 97 1015.6
20260906103333 18 360 0.0 4.8 0.00 0.00 0.00 97 1015.5
20260906102823 18 360 0.0 4.8 0.00 0.00 0.00 97 1015.6
20260906102331 18 360 1.6 6.4 0.00 0.00 0.00 97 1015.5
20260906101822 18 76 3.2 6.4 0.00 0.00 0.00 97 1015.5
20260906101333 18 360 1.6 4.8 0.00 0.00 0.00 97 1015.5
20260906100841 18 360 1.6 6.4 0.00 0.00 0.00 97 1015.3
20260906100350 18 360 1.6 6.4 0.00 0.00 0.00 97 1015.2
20260906095839 18 76 1.6 6.4 0.00 0.00 0.00 97 1015.2
20260906095329 18 360 3.2 6.4 0.00 0.00 0.00 97 1015.2
20260906094836 18 360 3.2 9.7 0.00 0.00 0.00 97 1015.3
20260906094347 18 360 4.8 9.7 0.00 0.00 0.00 97 1015.2
20260906093854 18 360 3.2 11.3 0.00 0.00 0.00 97 1015.1
20260906093321 18 360 4.8 11.3 0.00 0.00 0.00 97 1015.2
20260906092830 18 360 3.2 9.7 0.00 0.00 0.00 97 1015.2
20260906092339 18 64 4.8 9.7 0.00 0.00 0.00 97 1015.1
20260906091829 18 360 4.8 11.3 0.00 0.00 0.00 97 1015.1
20260906091334 18 360 6.4 11.3 0.00 0.00 0.00 97 1015.1
20260906090821 18 360 1.6 9.7 0.00 0.00 0.00 97 1015.1
20260906090333 18 63 3.2 9.7 0.00 0.00 0.00 97 1015.2
20260906085842 18 360 1.6 6.4 0.00 0.00 0.00 97 1015.2
20260906085329 18 360 1.6 6.4 0.00 0.00 0.00 97 1015.1
20260906084839 18 360 1.6 6.4 0.00 0.00 0.00 97 1015.1
20260906084332 18 360 0.0 0.0 0.00 0.00 0.00 97 1015.2
20260906083838 18 360 0.0 0.0 0.00 0.00 0.00 97 1015.1
20260906083327 18 360 0.0 0.0 0.00 0.00 0.00 97 1015.1
20260906082837 18 360 0.0 0.0 0.00 0.00 0.00 97 1015.1
20260906082347 18 360 0.0 0.0 0.00 0.00 0.00 97 1015.1
20260906081836 18 360 0.0 0.0 0.00 0.00 0.00 97 1015.1
20260906081326 18 360 0.0 0.0 0.00 0.00 0.00 97 1015.1
20260906080833 18 360 0.0 3.2 0.00 0.00 0.00 97 1015.1
20260906080344 18 360 0.0 4.8 0.00 0.00 0.00 97 1015.0
20260906075854 18 360 1.6 4.8 0.00 0.00 0.00 97 1015.0
20260906075322 18 360 0.0 0.0 0.00 0.00 0.00 97 1015.0
20260906074833 18 360 0.0 0.0 0.00 0.00 0.00 97 1014.9
20260906074338 18 360 0.0 0.0 0.00 0.00 0.00 97 1015.1
20260906073846 18 360 0.0 0.0 0.00 0.00 0.00 97 1015.2
20260906073352 18 360 0.0 0.0 0.00 0.00 0.00 97 1015.1
20260906072822 18 360 0.0 0.0 0.00 0.00 0.00 96 1015.2
20260906072331 18 360 0.0 0.0 0.00 0.00 0.00 96 1015.2
20260906071821 18 360 0.0 6.4 0.00 0.00 0.00 96 1015.1
20260906071334 18 360 0.0 6.4 0.00 0.00 0.00 96 1015.0
20260906070821 18 360 0.0 3.2 0.00 0.00 0.00 96 1015.2
20260906070331 18 360 0.0 3.2 0.00 0.00 0.00 96 1015.1
20260906065839 18 360 0.0 3.2 0.00 0.00 0.00 96 1015.0
20260906065328 18 360 0.0 3.2 0.00 0.00 0.00 96 1015.0
20260906064839 18 360 0.0 4.8 0.00 0.00 0.00 96 1015.2
20260906064349 18 360 1.6 4.8 0.00 0.00 0.00 96 1015.3
20260906063854 18 360 1.6 4.8 0.00 0.00 0.00 96 1015.2
20260906063324 18 360 0.0 0.0 0.00 0.00 0.00 96 1015.2
20260906062832 19 360 0.0 0.0 0.00 0.00 0.00 96 1015.1
20260906062321 19 360 0.0 0.0 0.00 0.00 0.00 96 1015.1
20260906061831 19 360 0.0 0.0 0.00 0.00 0.00 96 1015.1
20260906061341 19 360 0.0 0.0 0.00 0.00 0.00 96 1015.2
20260906060830 19 360 0.0 0.0 0.00 0.00 0.00 96 1015.1
20260906060402 19 360 0.0 0.0 0.00 0.00 0.00 96 1015.1
20260906055850 19 360 0.0 0.0 0.00 0.00 0.00 96 1015.1
20260906055337 19 360 0.0 0.0 0.00 0.00 0.00 96 1015.0
20260906054826 19 360 0.0 0.0 0.00 0.00 0.00 96 1015.0
20260906054337 19 360 0.0 0.0 0.00 0.00 0.00 96 1015.0
20260906053824 19 360 0.0 0.0 0.00 0.00 0.00 96 1015.0
20260906053332 19 360 0.0 0.0 0.00 0.00 0.00 95 1015.1
20260906052842 19 360 0.0 0.0 0.00 0.00 0.00 95 1014.9
20260906052329 20 360 0.0 3.2 0.00 0.00 0.00 95 1014.9
20260906051836 20 360 0.0 4.8 0.00 0.00 0.00 95 1014.8
20260906051328 20 360 1.6 3.2 0.00 0.00 0.00 95 1014.8
20260906050833 20 360 0.0 4.8 0.00 0.00 0.00 95 1014.8
20260906050323 20 360 0.0 6.4 0.00 0.00 0.00 95 1014.8
20260906045833 20 360 1.6 9.7 0.00 0.00 0.00 95 1014.7
20260906045340 20 360 3.2 9.7 0.00 0.00 0.00 95 1014.7
20260906044828 20 360 1.6 9.7 0.00 0.00 0.00 95 1014.6
20260906044338 20 360 4.8 9.7 0.00 0.00 0.00 95 1014.6
20260906043827 20 360 3.2 9.7 0.00 0.00 0.00 95 1014.6
20260906043332 20 360 3.2 11.3 0.00 0.00 0.00 95 1014.5
20260906042841 20 360 8.0 11.3 0.00 0.00 0.00 95 1014.5
20260906042346 20 76 4.8 11.3 0.00 0.00 0.00 95 1014.6
20260906041832 20 360 4.8 11.3 0.00 0.00 0.00 95 1014.5
20260906041323 20 360 4.8 11.3 0.00 0.00 0.00 95 1014.3
20260906040829 20 360 3.2 11.3 0.00 0.00 0.00 95 1014.1
20260906040338 20 360 6.4 11.3 0.00 0.00 0.00 95 1014.1
20260906035827 20 360 3.2 11.3 0.00 0.00 0.00 95 1014.1
20260906035338 20 360 4.8 11.3 0.00 0.00 0.00 95 1014.1
20260906034828 20 360 4.8 11.3 0.00 0.00 0.00 95 1014.2
20260906034336 20 360 4.8 9.7 0.00 0.00 0.00 95 1014.1
20260906033823 20 360 4.8 14.5 0.00 0.00 0.00 95 1013.9
20260906033359 20 360 3.2 14.5 0.00 0.00 0.00 95 1014.0
20260906032827 20 360 1.6 11.3 0.00 0.00 0.00 94 1014.0
20260906032337 20 360 1.6 16.1 0.00 0.00 0.00 94 1014.0
20260906031827 20 360 8.0 16.1 0.00 0.00 0.00 94 1014.1
20260906031336 20 360 6.4 14.5 0.00 0.00 0.00 94 1014.1
20260906030824 20 360 6.4 14.5 0.00 0.00 0.00 94 1013.9
20260906030357 20 360 4.8 14.5 0.00 0.00 0.00 94 1013.9
20260906025823 20 360 6.4 17.7 0.00 0.00 0.00 94 1013.9
20260906025400 20 360 8.0 17.7 0.00 0.00 0.00 94 1014.0
20260906024827 20 360 6.4 14.5 0.00 0.00 0.00 94 1014.0
20260906024337 20 360 4.8 12.9 0.00 0.00 0.00 93 1013.9
20260906023825 20 360 8.0 12.9 0.00 0.00 0.00 93 1014.0
20260906023334 20 360 4.8 14.5 0.00 0.00 0.00 93 1013.9
20260906022824 20 360 8.0 19.3 0.00 0.00 0.00 93 1013.9
20260906022333 20 360 4.8 19.3 0.00 0.00 0.00 93 1013.9
20260906021842 20 360 6.4 14.5 0.00 0.00 0.00 93 1013.9
20260906021353 20 360 8.0 14.5 0.00 0.00 0.00 93 1014.0
20260906020840 21 360 9.7 14.5 0.00 0.00 0.00 92 1013.9
20260906020348 21 360 1.6 11.3 0.00 0.00 0.00 92 1014.0
20260906015837 21 360 3.2 14.5 0.00 0.00 0.00 92 1014.1
20260906015325 21 360 4.8 14.5 0.00 0.00 0.00 92 1014.0
20260906014833 21 360 3.2 16.1 0.00 0.00 0.00 92 1014.1
20260906014324 21 360 4.8 16.1 0.00 0.00 0.00 92 1014.1
20260906013830 21 360 4.8 12.9 0.00 0.00 0.00 92 1014.0
20260906013336 21 80 1.6 11.3 0.00 0.00 0.00 92 1014.0
20260906012825 21 360 1.6 11.3 0.00 0.00 0.00 92 1014.1
20260906012334 21 360 4.8 11.3 0.00 0.00 0.00 92 1014.0
20260906011823 21 360 4.8 12.9 0.00 0.00 0.00 92 1014.0
20260906011401 21 360 4.8 16.1 0.00 0.00 0.00 92 1014.0
20260906010827 21 360 6.4 16.1 0.00 0.00 0.00 92 1014.0
20260906010337 21 360 6.4 11.3 0.00 0.00 0.00 92 1014.0
20260906005848 21 360 4.8 14.5 0.00 0.00 0.00 92 1014.0
20260906005334 21 360 3.2 14.5 0.00 0.00 0.00 92 1013.9
20260906004822 21 360 3.2 12.9 0.00 0.00 0.00 92 1013.7
20260906004401 21 360 4.8 19.3 0.00 0.00 0.00 92 1013.7
20260906003827 21 360 11.3 19.3 0.00 0.00 0.00 92 1013.6
20260906003337 21 360 6.4 24.1 0.00 0.00 0.00 92 1013.5
20260906002828 21 360 12.9 24.1 0.00 0.00 0.00 92 1013.4
20260906002336 21 360 8.0 27.4 0.00 0.00 0.00 92 1013.4
20260906001825 21 360 8.0 27.4 0.00 0.00 0.00 92 1013.5
20260906001335 21 360 8.0 17.7 0.00 0.00 0.00 92 1013.5
20260906000822 21 360 6.4 22.5 0.00 0.00 0.00 91 1013.5
20260906000356 21 360 12.9 22.5 0.00 0.00 0.00 91 1013.5
20260905235822 21 360 12.9 20.9 0.00 0.00 0.00 91 1013.5
20260905235333 21 360 11.3 20.9 0.00 0.00 0.00 91 1013.5
20260905234824 21 57 8.0 20.9 0.00 0.00 0.00 91 1013.5
20260905234334 21 360 6.4 20.9 0.00 0.00 0.00 91 1013.6
20260905233841 21 360 4.8 22.5 0.00 0.00 0.00 91 1013.6
20260905233330 21 360 9.7 22.5 0.00 0.00 0.00 91 1013.6
20260905232840 21 360 9.7 16.1 0.00 0.00 0.00 91 1013.7
20260905232330 21 360 9.7 17.7 0.00 0.00 0.00 91 1013.6
20260905231840 21 360 6.4 19.3 0.00 0.00 0.00 90 1013.6
20260905231330 21 360 9.7 19.3 0.00 0.00 0.00 90 1013.4
20260905230837 22 360 6.4 16.1 0.00 0.00 0.00 90 1013.5
20260905230325 22 360 3.2 17.7 0.00 0.00 0.00 89 1013.5
20260905225836 22 360 6.4 19.3 0.00 0.00 0.00 89 1013.4
20260905225326 22 360 8.0 20.9 0.00 0.00 0.00 89 1013.4
20260905224835 22 360 9.7 22.5 0.00 0.00 0.00 88 1013.3
20260905224325 22 360 11.3 22.5 0.00 0.00 0.00 88 1013.3
20260905223859 22 360 8.0 19.3 0.00 0.00 0.00 87 1013.3
20260905223329 22 360 9.7 19.3 0.00 0.00 0.00 87 1013.3
20260905222838 23 360 11.3 19.3 0.00 0.00 0.00 86 1013.3
20260905222348 23 360 9.7 19.3 0.00 0.00 0.00 86 1013.3
20260905221852 23 360 4.8 19.3 0.00 0.00 0.00 86 1013.2
20260905221342 23 360 8.0 22.5 0.00 0.00 0.00 85 1013.2
20260905220829 23 360 14.5 20.9 0.00 0.00 0.00 84 1013.1
20260905220337 23 360 11.3 19.3 0.00 0.00 0.00 85 1013.2
20260905215826 23 360 4.8 19.3 0.00 0.00 0.00 85 1013.0
20260905215336 23 360 8.0 22.5 0.00 0.00 0.00 84 1012.8
20260905214844 23 360 12.9 25.7 0.00 0.00 0.00 84 1012.8
20260905214355 24 360 9.7 25.7 0.00 0.00 0.00 83 1012.9
20260905213842 24 360 11.3 25.7 0.00 0.00 0.00 83 1012.7
20260905213349 24 360 11.3 24.1 0.00 0.00 0.00 82 1012.7
20260905212837 25 360 8.0 20.9 0.00 0.00 0.00 82 1012.5
20260905212326 25 360 8.0 22.5 0.00 0.00 0.00 81 1012.5
20260905211837 25 360 11.3 22.5 0.00 0.00 0.00 82 1012.4
20260905211348 25 360 4.8 20.9 0.00 0.00 0.00 83 1012.5
20260905210855 25 360 11.3 20.9 0.00 0.00 0.00 81 1012.5
20260905210323 25 360 9.7 20.9 0.00 0.00 0.00 81 1012.3
20260905205834 25 360 9.7 20.9 0.00 0.00 0.00 81 1012.4
20260905205321 25 360 8.0 17.7 0.00 0.00 0.00 82 1012.4
20260905204824 26 360 8.0 20.9 0.00 0.00 0.00 82 1012.4
20260905204335 26 360 8.0 20.9 0.00 0.00 0.00 82 1012.3
20260905203822 26 360 11.3 19.3 0.00 0.00 0.00 82 1012.3
20260905203331 26 360 6.4 19.3 0.00 0.00 0.00 80 1012.3
20260905202840 26 360 9.7 17.7 0.00 0.00 0.00 81 1012.2
20260905202351 26 360 9.7 17.7 0.00 0.00 0.00 79 1012.2
20260905201840 26 360 11.3 17.7 0.00 0.00 0.00 77 1012.4
20260905201350 26 360 6.4 17.7 0.00 0.00 0.00 78 1012.4
20260905200837 26 360 6.4 17.7 0.00 0.00 0.00 78 1012.3
20260905200326 26 360 3.2 14.5 0.00 0.00 0.00 79 1012.3
20260905195835 26 360 6.4 17.7 0.00 0.00 0.00 78 1012.3
20260905195344 26 360 9.7 17.7 0.00 0.00 0.00 78 1012.4
20260905194858 26 360 3.2 11.3 0.00 0.00 0.00 80 1012.4
20260905194347 26 57 1.6 17.7 0.00 0.00 0.00 81 1012.4
20260905193828 26 360 1.6 17.7 0.00 0.00 0.00 81 1012.7
20260905193338 25 360 6.4 16.1 0.00 0.00 0.00 82 1012.7
20260905192848 25 360 6.4 17.7 0.00 0.00 0.00 82 1012.7
20260905192335 25 360 8.0 17.7 0.00 0.00 0.00 83 1012.7
20260905191846 25 360 6.4 16.1 0.00 0.00 0.00 84 1012.7
20260905191356 25 360 11.3 16.1 0.00 0.00 0.00 83 1012.7
20260905190845 25 360 8.0 12.9 0.00 0.00 0.00 83 1012.8
20260905190355 25 360 3.2 12.9 0.00 0.00 0.00 84 1012.8
20260905185823 25 360 3.2 16.1 0.00 0.00 0.00 84 1012.8
20260905185359 25 360 6.4 16.1 0.00 0.00 0.00 84 1012.9
20260905184828 25 360 11.3 19.3 0.00 0.00 0.00 84 1012.9
20260905184339 25 360 8.0 19.3 0.00 0.00 0.00 84 1012.9
20260905183847 25 360 4.8 16.1 0.00 0.00 0.00 85 1013.0
20260905183355 25 360 4.8 16.1 0.00 0.00 0.00 87 1013.1
20260905182825 24 360 6.4 14.5 0.00 0.00 0.00 86 1013.1
20260905182329 24 360 8.0 14.5 0.00 0.00 0.00 86 1013.1
20260905181839 24 360 4.8 16.1 0.00 0.00 0.00 87 1013.0
20260905181328 24 360 1.6 16.1 0.00 0.00 0.00 88 1013.0
20260905180835 23 360 3.2 17.7 0.00 0.00 0.00 88 1013.1
20260905180324 23 360 8.0 17.7 0.00 0.00 0.00 88 1013.1
20260905175834 23 360 8.0 16.1 0.00 0.00 0.00 88 1013.0
20260905175343 23 360 1.6 14.5 0.00 0.00 0.00 88 1012.9
20260905174833 23 360 4.8 14.5 0.00 0.05 0.00 88 1012.9
20260905174323 23 360 6.4 14.5 0.00 0.05 0.00 88 1012.9
20260905173832 23 52 8.0 12.9 0.00 0.05 0.00 88 1012.9
20260905173321 24 360 6.4 12.9 0.00 0.05 0.00 88 1012.9
20260905172830 23 61 3.2 9.7 0.00 0.05 0.00 89 1013.0
20260905172407 23 360 4.8 9.7 0.00 0.05 0.00 89 1013.1
20260905171854 23 360 1.6 9.7 0.00 0.05 0.00 90 1013.0
20260905171324 23 65 6.4 12.9 0.00 0.05 0.00 90 1013.1
20260905170831 23 58 9.7 12.9 0.00 0.05 0.00 89 1013.1
20260905170321 23 360 4.8 11.3 0.00 0.05 0.00 90 1013.2
20260905165830 23 360 3.2 12.9 0.00 0.05 0.00 90 1013.2
20260905165335 23 360 6.4 16.1 0.00 0.05 0.00 90 1013.3
20260905164826 23 360 6.4 16.1 0.00 0.08 0.00 90 1013.4
20260905164337 23 360 6.4 17.7 0.00 0.08 0.00 90 1013.4
20260905163825 23 360 6.4 17.7 0.00 0.08 0.00 90 1013.5
20260905163337 23 360 6.4 16.1 0.00 0.08 0.00 91 1013.2
20260905162847 23 71 9.7 16.1 0.00 0.08 0.00 91 1013.2
20260905162358 23 360 6.4 16.1 0.00 0.08 0.00 91 1013.2
20260905161826 23 360 8.0 17.7 0.00 0.08 0.00 91 1013.4
20260905161339 23 360 8.0 17.7 0.00 0.08 0.00 91 1013.4
20260905160825 23 360 8.0 17.7 0.00 0.08 0.00 91 1013.3
20260905160335 23 360 8.0 17.7 0.00 0.08 0.00 91 1013.3
20260905155825 23 360 6.4 12.9 0.00 0.08 0.00 91 1013.2
20260905155335 23 360 6.4 12.9 0.00 0.08 0.00 91 1013.1
20260905154825 23 70 4.8 17.7 0.00 0.10 0.00 91 1013.1
20260905154337 23 360 8.0 17.7 0.00 0.10 0.00 90 1013.1
20260905153845 23 360 4.8 17.7 0.00 0.10 0.00 91 1013.0
20260905153355 23 360 1.6 17.7 0.00 0.10 0.00 91 1013.0
20260905152825 23 66 8.0 17.7 0.00 0.10 0.00 91 1012.9
20260905152334 23 360 4.8 14.5 0.00 0.10 0.00 92 1012.9
20260905151824 23 360 4.8 12.9 0.00 0.10 0.00 92 1012.6
20260905151335 23 360 4.8 12.9 0.00 0.10 0.00 92 1012.8
20260905150840 23 360 6.4 12.9 0.00 0.10 0.00 92 1012.6
20260905150349 23 360 4.8 12.9 0.00 0.10 0.00 92 1012.6
20260905145837 23 360 1.6 17.7 0.00 0.10 0.00 93 1012.5
20260905145349 23 360 6.4 17.7 0.00 0.10 0.00 93 1012.5
20260905144837 23 360 9.7 14.5 0.00 0.10 0.00 93 1012.5
20260905144328 23 360 6.4 16.1 0.00 0.10 0.00 93 1012.6
20260905143837 23 360 8.0 16.1 0.00 0.10 0.00 94 1012.5
20260905143325 23 360 6.4 11.3 0.00 0.10 0.00 94 1012.5
20260905142835 23 360 3.2 11.3 0.00 0.10 0.00 94 1012.5
20260905142325 22 360 3.2 12.9 0.00 0.10 0.00 94 1012.5
20260905141836 22 360 8.0 16.1 0.00 0.10 0.00 94 1012.5
20260905141326 22 360 1.6 14.5 0.00 0.10 0.00 95 1012.4
20260905140900 22 360 6.4 14.5 0.00 0.10 0.00 95 1012.4
20260905140329 22 360 6.4 16.1 0.00 0.10 0.00 95 1012.2
20260905135838 22 360 8.0 16.1 0.00 0.10 0.00 95 1012.3
20260905135347 22 360 8.0 16.1 0.00 0.10 0.00 95 1012.2
20260905134855 22 360 6.4 14.5 0.00 0.10 0.00 96 1012.2
20260905134324 22 360 1.6 16.1 0.00 0.10 0.00 96 1012.2
20260905133827 22 360 8.0 16.1 0.00 0.10 0.00 96 1012.2
20260905133338 22 360 6.4 16.1 0.00 0.10 0.00 96 1012.4
20260905132848 22 360 3.2 16.1 0.00 0.10 0.00 96 1012.5
20260905132333 22 360 6.4 12.9 0.00 0.10 0.00 96 1012.5
20260905131823 22 360 6.4 16.1 0.00 0.10 0.00 97 1012.7
20260905131334 22 64 8.0 16.1 0.00 0.10 0.00 97 1012.6